RYR18C ELLX-EDNY

Flight info

Callsign RYR18C
Flight time 0h 38m
Altitude 9000
Route EXCOS Q763 MAPIG/N0397F230 Q760 TOMPI Z729 BADLI Y163 NATOR T732 GARMO
Aircraft A320/M-SDE3FGHIRWY/LB1

Departure

Time 2026-05-08 19:19
Airport Luxembourg-Findel International Airport (ELLX)

Arrival

Time 2026-05-08 19:58
Airport Bodensee Airport Friedrichshafen (EDNY)
Time Latitude Longitude Altitude Speed Heading
2026-05-08 18:51 49.63223 6.21451 1230 ft 0 kts 240°
2026-05-08 19:11 49.63227 6.21464 1230 ft 3 kts 235°
2026-05-08 19:11 49.63240 6.21486 1230 ft 3 kts 208°
2026-05-08 19:11 49.63256 6.21493 1230 ft 3 kts 160°
2026-05-08 19:11 49.63265 6.21487 1230 ft 0 kts 135°
2026-05-08 19:12 49.63265 6.21486 1230 ft 0 kts 135°
2026-05-08 19:14 49.63265 6.21487 1230 ft 1 kts 135°
2026-05-08 19:14 49.63232 6.21528 1230 ft 9 kts 147°
2026-05-08 19:15 49.63156 6.21596 1230 ft 14 kts 150°
2026-05-08 19:15 49.63098 6.21645 1227 ft 2 kts 156°
2026-05-08 19:15 49.63069 6.21621 1226 ft 7 kts 233°
2026-05-08 19:15 49.63034 6.21510 1227 ft 15 kts 244°
2026-05-08 19:16 49.62977 6.21330 1230 ft 20 kts 245°
2026-05-08 19:16 49.62915 6.21125 1233 ft 25 kts 244°
2026-05-08 19:16 49.62847 6.20905 1250 ft 19 kts 246°
2026-05-08 19:16 49.62790 6.20745 1244 ft 8 kts 230°
2026-05-08 19:17 49.62759 6.20694 1245 ft 0 kts 223°
2026-05-08 19:17 49.62748 6.20679 1246 ft 8 kts 220°
2026-05-08 19:17 49.62693 6.20618 1242 ft 10 kts 216°
2026-05-08 19:17 49.62632 6.20528 1245 ft 20 kts 229°
2026-05-08 19:18 49.62560 6.20460 1242 ft 13 kts 168°
2026-05-08 19:18 49.62477 6.20534 1233 ft 15 kts 149°
2026-05-08 19:18 49.62453 6.20639 1240 ft 2 kts 60°
2026-05-08 19:19 49.62457 6.20648 1248 ft 7 kts 60°
2026-05-08 19:19 49.62625 6.21099 1239 ft 94 kts 60°
2026-05-08 19:19 49.63080 6.22326 1291 ft 158 kts 60°
2026-05-08 19:19 49.63642 6.23852 2044 ft 169 kts 61°
2026-05-08 19:20 49.64237 6.25479 2737 ft 180 kts 62°
2026-05-08 19:20 49.64436 6.26071 2851 ft 187 kts 68°
2026-05-08 19:20 49.64124 6.29560 3361 ft 227 kts 117°
2026-05-08 19:20 49.63272 6.31768 3831 ft 251 kts 122°
2026-05-08 19:21 49.62296 6.34073 3991 ft 259 kts 122°
2026-05-08 19:21 49.61315 6.36403 4013 ft 259 kts 122°
2026-05-08 19:21 49.60355 6.38764 4076 ft 262 kts 121°
2026-05-08 19:21 49.59412 6.41179 5002 ft 263 kts 120°
2026-05-08 19:22 49.58481 6.43630 5947 ft 267 kts 121°
2026-05-08 19:22 49.57544 6.46144 6826 ft 273 kts 120°
2026-05-08 19:22 49.56805 6.48876 7676 ft 279 kts 109°
2026-05-08 19:22 49.56195 6.51733 8543 ft 283 kts 109°
2026-05-08 19:23 49.55566 6.54655 8950 ft 288 kts 109°
2026-05-08 19:23 49.54935 6.57580 9074 ft 288 kts 109°
2026-05-08 19:23 49.54306 6.60502 9089 ft 287 kts 109°
2026-05-08 19:23 49.53676 6.63421 9093 ft 287 kts 110°
2026-05-08 19:24 49.53258 6.65352 9098 ft 287 kts 110°
2026-05-08 19:24 49.52622 6.68280 9098 ft 287 kts 110°
2026-05-08 19:24 49.51988 6.71194 9099 ft 287 kts 110°
2026-05-08 19:24 49.51351 6.74120 9094 ft 287 kts 110°
2026-05-08 19:25 49.50718 6.77032 9096 ft 287 kts 109°
2026-05-08 19:25 49.50083 6.79947 9092 ft 287 kts 110°
2026-05-08 19:25 49.49447 6.82859 9096 ft 287 kts 110°
2026-05-08 19:25 49.48809 6.85768 9098 ft 287 kts 110°
2026-05-08 19:26 49.48169 6.88677 9097 ft 287 kts 110°
2026-05-08 19:26 49.47525 6.91591 9100 ft 287 kts 110°
2026-05-08 19:26 49.46881 6.94504 9101 ft 287 kts 110°
2026-05-08 19:26 49.46239 6.97417 9102 ft 288 kts 110°
2026-05-08 19:27 49.45499 7.00217 9105 ft 286 kts 121°
2026-05-08 19:27 49.44284 7.02610 9107 ft 284 kts 138°
2026-05-08 19:27 49.42606 7.04379 9256 ft 304 kts 155°
2026-05-08 19:27 49.40546 7.05556 9529 ft 327 kts 160°
2026-05-08 19:28 49.38561 7.07438 9949 ft 345 kts 137°
2026-05-08 19:28 49.37070 7.10373 10605 ft 352 kts 123°
2026-05-08 19:28 49.35723 7.13532 11313 ft 356 kts 125°
2026-05-08 19:28 49.34326 7.16691 12020 ft 359 kts 126°
2026-05-08 19:29 49.32893 7.19859 12716 ft 363 kts 126°
2026-05-08 19:29 49.31437 7.23049 13417 ft 367 kts 126°
2026-05-08 19:29 49.29958 7.26281 14088 ft 372 kts 126°
2026-05-08 19:29 49.28486 7.29503 14676 ft 376 kts 127°
2026-05-08 19:30 49.26977 7.32810 15259 ft 380 kts 127°
2026-05-08 19:30 49.25460 7.36148 15869 ft 384 kts 126°
2026-05-08 19:30 49.23950 7.39542 16468 ft 388 kts 123°
2026-05-08 19:30 49.22752 7.43279 17074 ft 394 kts 111°
2026-05-08 19:31 49.21989 7.47338 17697 ft 399 kts 105°
2026-05-08 19:31 49.21319 7.51478 18337 ft 403 kts 105°
2026-05-08 19:31 49.20637 7.55655 18904 ft 406 kts 105°
2026-05-08 19:31 49.19943 7.59874 19493 ft 410 kts 105°
2026-05-08 19:32 49.19240 7.64116 20097 ft 413 kts 105°
2026-05-08 19:32 49.18527 7.68388 20678 ft 416 kts 105°
2026-05-08 19:32 49.17808 7.72691 21228 ft 419 kts 105°
2026-05-08 19:32 49.17051 7.77003 21751 ft 421 kts 110°
2026-05-08 19:33 49.15739 7.80990 22248 ft 420 kts 127°
2026-05-08 19:33 49.13749 7.84234 22743 ft 419 kts 144°
2026-05-08 19:33 49.11257 7.86502 23038 ft 417 kts 159°
2026-05-08 19:33 49.08581 7.88193 23077 ft 416 kts 160°
2026-05-08 19:34 49.05896 7.89833 23070 ft 416 kts 160°
2026-05-08 19:34 49.03206 7.91454 23062 ft 415 kts 160°
2026-05-08 19:34 49.00514 7.93076 23067 ft 416 kts 160°
2026-05-08 19:34 48.97858 7.94689 23066 ft 416 kts 160°
2026-05-08 19:35 48.95135 7.96353 23052 ft 417 kts 160°
2026-05-08 19:35 48.92448 7.98005 23054 ft 416 kts 160°
2026-05-08 19:35 48.89760 7.99657 23056 ft 416 kts 160°
2026-05-08 19:35 48.87075 8.01308 23063 ft 416 kts 160°
2026-05-08 19:36 48.84388 8.02958 23053 ft 416 kts 160°
2026-05-08 19:36 48.81736 8.04576 23057 ft 416 kts 160°
2026-05-08 19:36 48.79041 8.06209 23045 ft 416 kts 160°
2026-05-08 19:36 48.76351 8.07838 23042 ft 416 kts 160°
2026-05-08 19:37 48.73664 8.09471 23046 ft 416 kts 160°
2026-05-08 19:37 48.70974 8.11111 23046 ft 416 kts 160°
2026-05-08 19:37 48.68282 8.12751 23052 ft 416 kts 160°
2026-05-08 19:37 48.65603 8.14382 23043 ft 409 kts 160°
2026-05-08 19:38 48.63005 8.15968 22787 ft 398 kts 160°
2026-05-08 19:38 48.60450 8.17522 22349 ft 393 kts 160°
2026-05-08 19:38 48.57919 8.19055 21892 ft 390 kts 160°
2026-05-08 19:38 48.55407 8.20571 21424 ft 387 kts 160°
2026-05-08 19:39 48.52913 8.22071 20951 ft 385 kts 160°
2026-05-08 19:39 48.50430 8.23550 20466 ft 382 kts 162°
2026-05-08 19:39 48.47896 8.24643 19976 ft 377 kts 171°
2026-05-08 19:39 48.45326 8.25295 19476 ft 374 kts 173°
2026-05-08 19:40 48.42763 8.25912 18989 ft 371 kts 173°
2026-05-08 19:40 48.40252 8.26514 18513 ft 369 kts 173°
2026-05-08 19:40 48.37720 8.27125 17979 ft 367 kts 173°
2026-05-08 19:40 48.35202 8.27735 17419 ft 364 kts 173°
2026-05-08 19:41 48.32717 8.28342 16907 ft 361 kts 173°
2026-05-08 19:41 48.30240 8.28947 16380 ft 358 kts 173°
2026-05-08 19:41 48.27789 8.29543 15845 ft 355 kts 173°
2026-05-08 19:41 48.25364 8.30204 15327 ft 354 kts 167°
2026-05-08 19:42 48.23135 8.31765 15075 ft 357 kts 147°
2026-05-08 19:42 48.21239 8.34213 15049 ft 362 kts 140°
2026-05-08 19:42 48.19385 8.36777 15057 ft 363 kts 140°
2026-05-08 19:42 48.17527 8.39347 14860 ft 363 kts 140°
2026-05-08 19:43 48.15702 8.41878 14620 ft 361 kts 140°
2026-05-08 19:43 48.13838 8.44468 14379 ft 360 kts 140°
2026-05-08 19:43 48.12022 8.46985 14132 ft 359 kts 140°
2026-05-08 19:43 48.10190 8.49514 13893 ft 358 kts 140°
2026-05-08 19:44 48.08362 8.52037 13637 ft 356 kts 140°
2026-05-08 19:44 48.06541 8.54544 13357 ft 355 kts 140°
2026-05-08 19:44 48.04731 8.57033 13092 ft 353 kts 140°
2026-05-08 19:44 48.02930 8.59513 12829 ft 351 kts 140°
2026-05-08 19:45 48.01137 8.61979 12569 ft 350 kts 140°
2026-05-08 19:45 47.99355 8.64438 12312 ft 348 kts 140°
2026-05-08 19:45 47.97581 8.66887 12049 ft 347 kts 140°
2026-05-08 19:45 47.95810 8.69324 11792 ft 345 kts 140°
2026-05-08 19:46 47.94042 8.71743 11543 ft 344 kts 140°
2026-05-08 19:46 47.92284 8.74148 11292 ft 342 kts 140°
2026-05-08 19:46 47.88788 8.78927 10785 ft 340 kts 140°
2026-05-08 19:47 47.87046 8.81304 10540 ft 338 kts 139°
2026-05-08 19:47 47.85313 8.83671 10297 ft 337 kts 139°
2026-05-08 19:47 47.83587 8.86023 10056 ft 336 kts 139°
2026-05-08 19:47 47.81892 8.88334 9891 ft 324 kts 139°
2026-05-08 19:48 47.80260 8.90561 9756 ft 312 kts 139°
2026-05-08 19:48 47.78711 8.92673 9622 ft 301 kts 139°
2026-05-08 19:48 47.77200 8.94730 9484 ft 284 kts 139°
2026-05-08 19:48 47.75792 8.96645 9355 ft 265 kts 139°
2026-05-08 19:49 47.74476 8.98430 9218 ft 247 kts 140°
2026-05-08 19:49 47.73236 9.00108 9068 ft 237 kts 140°
2026-05-08 19:49 47.72027 9.01739 8624 ft 234 kts 140°
2026-05-08 19:49 47.70826 9.03354 8153 ft 231 kts 139°
2026-05-08 19:50 47.69644 9.04947 7686 ft 228 kts 139°
2026-05-08 19:50 47.68476 9.06525 7230 ft 226 kts 139°
2026-05-08 19:50 47.67320 9.08090 6776 ft 223 kts 139°
2026-05-08 19:50 47.66179 9.09629 6348 ft 220 kts 138°
2026-05-08 19:51 47.65051 9.11144 5899 ft 217 kts 137°
2026-05-08 19:51 47.63971 9.12603 5716 ft 203 kts 137°
2026-05-08 19:51 47.62937 9.13997 5354 ft 199 kts 136°
2026-05-08 19:51 47.61914 9.15373 4957 ft 198 kts 136°
2026-05-08 19:52 47.60892 9.16746 4553 ft 197 kts 136°
2026-05-08 19:52 47.59870 9.18123 4032 ft 202 kts 136°
2026-05-08 19:52 47.58821 9.19537 3983 ft 209 kts 136°
2026-05-08 19:52 47.57861 9.21158 3982 ft 211 kts 119°
2026-05-08 19:53 47.57335 9.23166 3980 ft 210 kts 98°
2026-05-08 19:53 47.57326 9.25313 3979 ft 209 kts 78°
2026-05-08 19:53 47.57836 9.27318 3978 ft 209 kts 59°
2026-05-08 19:53 47.58547 9.29130 4013 ft 193 kts 59°
2026-05-08 19:54 47.59193 9.30775 3999 ft 178 kts 59°
2026-05-08 19:54 47.59781 9.32275 3962 ft 163 kts 59°
2026-05-08 19:54 47.60334 9.33692 3823 ft 153 kts 59°
2026-05-08 19:54 47.60855 9.35024 3666 ft 147 kts 59°
2026-05-08 19:55 47.61361 9.36320 3498 ft 142 kts 59°
2026-05-08 19:55 47.61851 9.37577 3311 ft 139 kts 59°
2026-05-08 19:55 47.62335 9.38817 3117 ft 138 kts 59°
2026-05-08 19:55 47.62814 9.40046 2920 ft 138 kts 59°
2026-05-08 19:56 47.63286 9.41258 2731 ft 134 kts 60°
2026-05-08 19:56 47.63750 9.42449 2542 ft 133 kts 60°
2026-05-08 19:56 47.64218 9.43646 2375 ft 134 kts 59°
2026-05-08 19:56 47.64687 9.44849 2202 ft 137 kts 59°
2026-05-08 19:57 47.65162 9.46075 2000 ft 137 kts 59°
2026-05-08 19:57 47.65637 9.47298 1795 ft 137 kts 58°
2026-05-08 19:57 47.66116 9.48525 1584 ft 136 kts 59°
2026-05-08 19:57 47.66587 9.49742 1426 ft 135 kts 58°
2026-05-08 19:58 47.67034 9.50899 1357 ft 116 kts 60°
2026-05-08 19:58 47.67378 9.51776 1361 ft 82 kts 60°
2026-05-08 19:58 47.67524 9.52158 1365 ft 16 kts 59°
2026-05-08 19:58 47.67497 9.52284 1367 ft 15 kts 118°
2026-05-08 19:59 47.67491 9.52297 1368 ft 0 kts 124°
2026-05-08 19:59 47.67490 9.52299 1368 ft 2 kts 125°
2026-05-08 19:59 47.67450 9.52348 1368 ft 8 kts 157°
2026-05-08 19:59 47.67408 9.52336 1369 ft 1 kts 222°
2026-05-08 20:00 47.67402 9.52325 1368 ft 3 kts 231°
2026-05-08 20:00 47.67385 9.52281 1367 ft 7 kts 242°
2026-05-08 20:00 47.67372 9.52246 1367 ft 1 kts 242°
2026-05-08 20:00 47.67349 9.52186 1367 ft 10 kts 240°
2026-05-08 20:01 47.67317 9.52114 1366 ft 5 kts 212°
2026-05-08 20:01 47.67308 9.52112 1367 ft 0 kts 191°
2026-05-08 20:01 47.67306 9.52111 1367 ft 1 kts 187°
2026-05-08 20:01 47.67293 9.52107 1367 ft 4 kts 200°
2026-05-08 20:02 47.67266 9.52108 1367 ft 3 kts 135°
2026-05-08 20:02 47.67264 9.52122 1367 ft 0 kts 97°
2026-05-08 20:02 47.67264 9.52118 1367 ft 1 kts 97°
2026-05-08 20:02 47.67267 9.52124 1366 ft 0 kts 63°
2026-05-08 20:03 47.67267 9.52125 1368 ft 0 kts 71°